Regional Weather Roundup
Issued by NWS Upton, NY

Home | Current Version | Previous Version | Text Only | Print | Product List | Glossary On
Versions: 1 2 3 4 5 6 7 8 9 10 11 12 13 14 15 16 17 18 19 20 21 22 23 24 25 26 27 28 29 30 31 32 33 34 35 36 37 38 39 40 41 42 43 44 45 46 47 48 49 50
000
ASUS41 KOKX 240809
RWROKX

REGIONAL WEATHER ROUNDUP
NATIONAL WEATHER SERVICE NEW YORK NY
400 AM EDT MON APR 24 2017

NOTE: "FAIR" INDICATES FEW OR NO CLOUDS BELOW 12,000 FEET WITH NO
SIGNIFICANT WEATHER AND/OR OBSTRUCTIONS TO VISIBILITY.

NYZ071-072-176-178-NJZ106-104-240900-
NEW YORK CITY METRO AREA

CITY           SKY/WX    TMP DP  RH WIND       PRES   REMARKS
Central Park   CLEAR     49  41  74 N3        30.13S
Wall St Helipt SUNNY     48  43  81 CALM      30.12S
Bronx Bot Gard   N/A     45  41  87 NE1       30.13R
LaGuardia APRT MOCLDY    50  42  74 CALM      30.11R
Kennedy INTL   PTCLDY    44  43  96 E3        30.12S
Breezy Point     N/A     46 N/A N/A S1          N/A
Newark/Liberty MOCLDY    48  42  80 CALM      30.11S
Teterboro      CLEAR     46  41  82 CALM      30.11R
$$

NYZ177-179-078>081-240900-
LONG ISLAND NEW YORK

CITY           SKY/WX    TMP DP  RH WIND       PRES   REMARKS
Jones Beach      N/A     48 N/A N/A MISG        N/A
Matinecock PT    N/A     46 N/A N/A CALM        N/A
Farmingdale    PTCLDY    42  40  92 NE3       30.12R
MacArthur/ISP  CLEAR     39  38  96 CALM      30.12R
Shirley        CLEAR     35  35 100 CALM      30.13S
Mt Sinai Harb    N/A     41 N/A N/A S1          N/A
Westhampton    CLOUDY    30  28  92 CALM      30.15R
East Hampton   FOG       32  32  99 CALM      30.13R VSB 1/4
Montauk          N/A     45  44  97 CALM      30.15R
$$

NYZ052-065-067-240900-
HUDSON VALLEY

CITY           SKY/WX    TMP DP  RH WIND       PRES   REMARKS
White Plains   CLEAR     41  38  89 NW5       30.11R
Larchmont Harb   N/A     45 N/A N/A NW5         N/A
Croton O-T Hud   N/A     43 N/A N/A MISG        N/A
Newburgh       CLEAR     43  41  93 CALM      30.10S
Montgomery     CLOUDY    40  38  93 SW5       30.09R
Poughkeepsie   MOCLDY    42  39  89 CALM      30.09S
Albany         PTCLDY    44  36  73 CALM      30.09S
$$

NJZ001-105-106-008-010-013-015-019>022-104-240900-
NEW JERSEY

CITY           SKY/WX    TMP DP  RH WIND       PRES   REMARKS
Newark/Liberty MOCLDY    48  42  80 CALM      30.11S
Teterboro      CLEAR     46  41  82 CALM      30.11R
Caldwell       CLEAR     44  41  89 CALM      30.12S
Somerville     CLEAR     40  38  93 CALM      30.10S
Linden           N/A     46  41  83 CALM      30.12R
Sussex         CLEAR     40  40 100 CALM      30.11R
Andover          N/A     43  41  93 CALM      30.10R
Trenton        PTCLDY    45  43  93 CALM      30.11R
Millville      CLOUDY    49  46  90 NE5       30.08F
Atlantic City  CLOUDY    48  44  86 CALM      30.09S
Wrightstown    CLOUDY    46  44  94 CALM      30.08S
Toms River     CLOUDY    43  42  97 CALM      30.12R
Belmar         CLOUDY    45  43  93 CALM      30.13R
$$

PAZ047>061-062-071-240900-
EASTERN PENNSYLVANIA

CITY           SKY/WX    TMP DP  RH WIND       PRES   REMARKS
Philadelphia   CLOUDY    51  46  83 SE6       30.11S
Allentown      PTCLDY    42  39  89 N3        30.09S
Scranton       CLEAR     47  36  65 E5        30.09R
$$

CTZ002-004>006-009-010-012-RIZ004-006-007-MAZ004-011-015-240900-
SOUTHERN NEW ENGLAND
 IN CT

CITY           SKY/WX    TMP DP  RH WIND       PRES   REMARKS
Bradley INTL   PTCLDY    43  39  86 SE5       30.11S
Hartford       CLEAR     43  40  89 S5        30.12S
Danbury        CLEAR     37  37 100 SW3       30.13R
Wtrbury/Oxford PTCLDY    41  36  81 CALM      30.13R
Bridgeport     CLEAR     45  41  86 CALM      30.12S
Meriden        PTCLDY    39  36  89 SE5       30.13R
New Haven      CLEAR     39  37  92 CALM      30.13R
Chester          N/A     41  39  93 CALM      30.12S
Groton         CLEAR     40  37  89 CALM      30.13R
Wilimantic     CLEAR     40  37  89 CALM      30.13S

 IN RI

CITY           SKY/WX    TMP DP  RH WIND       PRES   REMARKS
Providence     CLOUDY    40  38  93 S3        30.13S
Block Island   CLEAR     42  41  96 SW6       30.15R
Westerly       CLEAR     40  38  93 CALM      30.14R
 IN MA

CITY           SKY/WX    TMP DP  RH WIND       PRES   REMARKS
Boston         PTCLDY    45  38  76 SW8       30.10S
Worcester      CLEAR     42  34  73 W10       30.09S
Westfield      CLEAR     41  39  93 CALM      30.10S
Provincetown   CLEAR     44  41  89 SW10      30.12S
Nantucket      MOCLDY    44  41  89 SW9       30.14S
$$

ANZ330-335-338-340-345-350-353-355-240900-
COASTAL MARINE OBSERVATIONS


STATION/POSITION TIME  SKY/WX   TEMP    WIND        PRES    VSBY  WAVE
                                AIR SEA DIR/SP/G                  HT/PER
                 (UTC)          (F)     (DEG/KT/KT) (MB)    (MI)  (FT/S)
NY HARB ENTRANCE 0650            49 49   CALM  /  2 1020.2          3/11
20 S FIRE ISLAND 0750            47 48  110/  4/  4 1019.7          3/11
GREAT SOUTH BAY  0715            48 56  180/  4/  6   N/A
23 SSW MONTAUK P 0650            45 45              1020.8          3/11
15 E BARNEGAT LI 0730               51                N/A           4/11
HUDSON CANYON    0650            48 47   90/  6/  8 1019.4          4/11
KINGS POINT      0748            47 50     CALM     1019.5
EXECUTION ROCKS  NOT AVBL
CENTRAL LI SOUND 0745            47     190/  2/  4   N/A           0
EASTERN LI SOUND NOT AVBL
ROBBINS REEF     0748            49     150/  2/  3 1019.8
$$


>>>>>>>>>>>>>>>>>>>>>>>>>>>> KEY <<<<<<<<<<<<<<<<<<<<<<<<<<<
>                                                          <
>     SKY/WX - Sky Condition/Present Weather               <
>     TMP    - Temperature in Fahrenheit                   <
>     DP     - Dew Point in Fahrenheit                     <
>     RH     - Relative Humidity in Percent                <
>     WIND   - Direction (from) and Speed in MPH           <
>     PRES   - Mean Sea Level Pressure (inches of Hg)      <
>     WCI    - Wind Chill Index                            <
>     VSB    - VISIBILITY IN MILES                         <
>     HX     - HEAT INDEX                                  <
>     TC     - TEMPERATURE IN CELSIUS                      <
>     VRB    - VARIABLE WIND DIRECTION                     <
>                                                          <
>>>>>>>>>>>>>>>>>>>>>>>>>>>> KEY <<<<<<<<<<<<<<<<<<<<<<<<<<<



USA.gov is the U.S. government's official web portal to all federal, state and local government web resources and services.